Welcome to the New NWS' Forecast!
Most changes are behind the scenes, but click here for differences you might notice.

Regional Weather Roundup (RWR)

Issued by Gray - Portland, ME (GYX)

                            
961 
ASUS41 KGYX 212205
RWRGYX
WEATHER ROUNDUP FOR MAINE AND NEW HAMPSHIRE
NATIONAL WEATHER SERVICE GRAY ME
600 PM EDT FRI SEP 21 2018

MEZ002-005-006-010-012-015-018-020-021-024-026-027-029-212300-
MAINE
  
CITY           SKY/WX    TMP DP  RH WIND       PRES   REMARKS
PORTLAND       CLOUDY    63  57  81 S17G24    30.01F                  
SANFORD        CLOUDY    63  57  81 S6        30.01F                  
BAR HARBOR     CLOUDY    60  54  80 S18       30.05F                  
WISCASSET      CLOUDY    62  56  80 S10G21    30.03F                  
ROCKLAND       CLOUDY    61  56  83 S12G20    30.04F                  
FRYEBURG       CLOUDY    59  55  87 CALM      29.99F                  
LEWISTONAUBURN CLOUDY    60  56  86 S10       29.99F                  
AUGUSTA        CLOUDY    60  53  77 S14G20    30.00F                  
WATERVILLE     CLOUDY    59  53  80 S9G16     29.96F                  
BANGOR         CLOUDY    59  55  87 S15G23    29.99F                  
GREENVILLE       N/A     52  51  97 S8G25     29.91F                  
MILLINOCKET    LGT RAIN  52  50  93 SE7       29.96F FOG              
HOULTON        LGT RAIN  50  49  96 S13G24    29.93F                  
PRESQUE ISLE   LGT RAIN  53  49  86 S22G32    29.86F                  
FRENCHVILLE    LGT RAIN  53  48  83 S22G35    29.79F                  
CARIBOU        LGT RAIN  53  49  86 S21G30    29.84F                  
$$

NHZ002-005-008-009-011-012-014-212300-
NEW HAMPSHIRE
  
CITY           SKY/WX    TMP DP  RH WIND       PRES   REMARKS
PORTSMOUTH     CLOUDY    66  55  66 S13       30.01F                  
ROCHESTER      CLOUDY    63  59  87 S6        30.01F                  
NASHUA         MOCLDY    66  60  81 VRB5      30.02F                  
MANCHESTER     CLOUDY    67  57  70 S13G20    29.99F                  
CONCORD        CLOUDY    65  58  78 S9        30.00F                  
LACONIA        CLOUDY    63  57  81 S9        29.98F                  
PLYMOUTH       CLOUDY    60  55  84 NE6       29.97F                  
BERLIN         CLOUDY    59  55  87 SE7       29.91F                  
WHITEFIELD     CLOUDY    64  56  75 VRB5      29.90F                  
JAFFREY        CLOUDY    64  59  83 S12G20    30.03F                  
KEENE          CLOUDY   N/A N/A N/A S12       30.00F                  
LEBANON        CLOUDY    65  58  78 S15       29.93F                  
MT WASHINGTON  FOG       46  46 100 SW36G62     N/A  VSB 1/16         
$$

VTZ005-007-008-212300-
VERMONT
  
CITY           SKY/WX    TMP DP  RH WIND       PRES   REMARKS
ST JOHNSBURY     N/A     61  57  87 MISG      29.86F                  
MONTPELIER     CLOUDY    62  61  96 S17G25    29.90F                  
BURLINGTON     MOCLDY    69  60  73 S21G30    29.77F                  
$$

MAZ007-012-024-CTZ003-RIZ002-NYZ038-NYZ072-212300-
SOUTHERN NEW ENGLAND AND NY
  
CITY           SKY/WX    TMP DP  RH WIND       PRES   REMARKS
BOSTON         CLOUDY    67  57  70 S15G22    30.05F                  
WORCESTER      CLOUDY    62  57  83 S14       30.05F                  
NANTUCKET      FAIR      64  60  87 S13       30.13F                  
PROVIDENCE     CLOUDY    66  59  78 S12       30.10F                  
HARTFORD       CLOUDY    68  60  75 S16       30.04F                  
ALBANY         CLOUDY    70  60  70 S21G28    29.93F                  
NEW YORK CITY  CLOUDY    74  64  71 S20G25    30.05F                  
$$

ANZ081-ANZ082-ANZ150-NHZ014-MEZ023>029-212300-
COASTAL MARINE OBSERVATIONS
  
STATION/POSITION TIME  TEMP    WIND        PRES    WAVE
                       AIR SEA DIR/SP/G            HT/PER
                 (UTC) (F)     (DEG/KT/KT) (MB)    (FT/S)
MOUNT DESERT ROC 2200   60     160/ 27/ 29 1018.0F
MATINICUS ROCK   2100   61     180/ 23/ 24 1018.4F
ISLE OF SHOALS   2100   64     170/ 24/ 26 1017.0F
JEFFREYS LEDGE   2106      63                N/A     5/11
$$

.............KEY..............
   WCI - WIND CHILL
   TC  - TEMPERATURE IN CELSIUS
   VSB - VISIBILITY IN MILES
   HX  - HEAT INDEX
   FAIR- INDICATES FEW OR NO CLOUDS BELOW 12,000 FT, WITH NO 
         SIGNIFICANT WEATHER AND/OR OBSTRUCTIONS TO VISIBILITY.


  


000
ASUS41 KGYX 212205
RWRGYX
WEATHER ROUNDUP FOR MAINE AND NEW HAMPSHIRE
NATIONAL WEATHER SERVICE GRAY ME
600 PM EDT FRI SEP 21 2018

MEZ002-005-006-010-012-015-018-020-021-024-026-027-029-212300-
MAINE
  
CITY           SKY/WX    TMP DP  RH WIND       PRES   REMARKS
PORTLAND       CLOUDY    63  57  81 S17G24    30.01F                  
SANFORD        CLOUDY    63  57  81 S6        30.01F                  
BAR HARBOR     CLOUDY    60  54  80 S18       30.05F                  
WISCASSET      CLOUDY    62  56  80 S10G21    30.03F                  
ROCKLAND       CLOUDY    61  56  83 S12G20    30.04F                  
FRYEBURG       CLOUDY    59  55  87 CALM      29.99F                  
LEWISTONAUBURN CLOUDY    60  56  86 S10       29.99F                  
AUGUSTA        CLOUDY    60  53  77 S14G20    30.00F                  
WATERVILLE     CLOUDY    59  53  80 S9G16     29.96F                  
BANGOR         CLOUDY    59  55  87 S15G23    29.99F                  
GREENVILLE       N/A     52  51  97 S8G25     29.91F                  
MILLINOCKET    LGT RAIN  52  50  93 SE7       29.96F FOG              
HOULTON        LGT RAIN  50  49  96 S13G24    29.93F                  
PRESQUE ISLE   LGT RAIN  53  49  86 S22G32    29.86F                  
FRENCHVILLE    LGT RAIN  53  48  83 S22G35    29.79F                  
CARIBOU        LGT RAIN  53  49  86 S21G30    29.84F                  
$$

NHZ002-005-008-009-011-012-014-212300-
NEW HAMPSHIRE
  
CITY           SKY/WX    TMP DP  RH WIND       PRES   REMARKS
PORTSMOUTH     CLOUDY    66  55  66 S13       30.01F                  
ROCHESTER      CLOUDY    63  59  87 S6        30.01F                  
NASHUA         MOCLDY    66  60  81 VRB5      30.02F                  
MANCHESTER     CLOUDY    67  57  70 S13G20    29.99F                  
CONCORD        CLOUDY    65  58  78 S9        30.00F                  
LACONIA        CLOUDY    63  57  81 S9        29.98F                  
PLYMOUTH       CLOUDY    60  55  84 NE6       29.97F                  
BERLIN         CLOUDY    59  55  87 SE7       29.91F                  
WHITEFIELD     CLOUDY    64  56  75 VRB5      29.90F                  
JAFFREY        CLOUDY    64  59  83 S12G20    30.03F                  
KEENE          CLOUDY   N/A N/A N/A S12       30.00F                  
LEBANON        CLOUDY    65  58  78 S15       29.93F                  
MT WASHINGTON  FOG       46  46 100 SW36G62     N/A  VSB 1/16         
$$

VTZ005-007-008-212300-
VERMONT
  
CITY           SKY/WX    TMP DP  RH WIND       PRES   REMARKS
ST JOHNSBURY     N/A     61  57  87 MISG      29.86F                  
MONTPELIER     CLOUDY    62  61  96 S17G25    29.90F                  
BURLINGTON     MOCLDY    69  60  73 S21G30    29.77F                  
$$

MAZ007-012-024-CTZ003-RIZ002-NYZ038-NYZ072-212300-
SOUTHERN NEW ENGLAND AND NY
  
CITY           SKY/WX    TMP DP  RH WIND       PRES   REMARKS
BOSTON         CLOUDY    67  57  70 S15G22    30.05F                  
WORCESTER      CLOUDY    62  57  83 S14       30.05F                  
NANTUCKET      FAIR      64  60  87 S13       30.13F                  
PROVIDENCE     CLOUDY    66  59  78 S12       30.10F                  
HARTFORD       CLOUDY    68  60  75 S16       30.04F                  
ALBANY         CLOUDY    70  60  70 S21G28    29.93F                  
NEW YORK CITY  CLOUDY    74  64  71 S20G25    30.05F                  
$$

ANZ081-ANZ082-ANZ150-NHZ014-MEZ023>029-212300-
COASTAL MARINE OBSERVATIONS
  
STATION/POSITION TIME  TEMP    WIND        PRES    WAVE
                       AIR SEA DIR/SP/G            HT/PER
                 (UTC) (F)     (DEG/KT/KT) (MB)    (FT/S)
MOUNT DESERT ROC 2200   60     160/ 27/ 29 1018.0F
MATINICUS ROCK   2100   61     180/ 23/ 24 1018.4F
ISLE OF SHOALS   2100   64     170/ 24/ 26 1017.0F
JEFFREYS LEDGE   2106      63                N/A     5/11
$$

.............KEY..............
   WCI - WIND CHILL
   TC  - TEMPERATURE IN CELSIUS
   VSB - VISIBILITY IN MILES
   HX  - HEAT INDEX
   FAIR- INDICATES FEW OR NO CLOUDS BELOW 12,000 FT, WITH NO 
         SIGNIFICANT WEATHER AND/OR OBSTRUCTIONS TO VISIBILITY.